[[{"header":{"parameterUnit":"m.s-1","parameterCategory":1,"la1":30.2991,"la2":30.254,"lo1":-89.0895,"lo2":-89.0444,"dy":0.0017,"dx":0.0017,"nx":28,"ny":28,"refTime":"2023-11-05T09:00:00:Z","depth":0,"parameterNumber":2,"parameterNumberName":"U-component_of_WINDS"},"data":[0,0,0,0,0,0,0,0,0,0,0,0,0,0,0,0,0,0,0,0,0,0,0,0,0,0,0,0,0,0,0,0,0,0,0,0,0,0,0,0,0,0,0,0,0,0,0,0,0,0,0,0,0,0,0,0,0,0,-0.5436,-0.5436,0,-0.5469,-0.547,-0.547,-0.5432,-0.5431,-0.5429,-0.5428,-0.546,-0.5462,-0.5464,0,0,0,0,0,0,0,0,0,0,0,0,0,-0.5339,-0.5341,-0.5436,-0.5437,-0.5437,-0.5469,-0.547,-0.547,-0.5432,-0.5431,-0.5429,-0.5427,-0.5459,-0.5462,-0.5465,0,0,0,0,0,0,0,0,0,0,0,0,0,-0.5377,-0.5341,-0.5436,-0.5422,-0.5421,-0.5469,-0.547,-0.547,-0.5433,-0.543,-0.5428,-0.5426,-0.5459,-0.5462,-0.5465,-0.5528,0,0,-0.5475,-0.5476,0,0,0,0,0,0,0,0,-0.5375,-0.5381,-0.5424,-0.5423,-0.5422,-0.5444,-0.5447,-0.549,-0.5433,-0.5428,-0.5428,-0.5425,-0.5457,-0.546,-0.5471,-0.553,-0.5531,-0.5475,-0.5477,-0.5479,-0.548,0,0,0,0,0,0,0,-0.5372,-0.5379,-0.5449,-0.5424,-0.5423,-0.5414,-0.5417,-0.5455,-0.5454,-0.5428,-0.5426,-0.543,-0.5456,-0.5468,-0.5471,-0.5532,-0.5475,-0.5478,-0.548,-0.5482,-0.5644,-0.5647,0,0,0,0,0,0,-0.5372,-0.5377,-0.5448,-0.545,-0.5393,-0.5417,-0.5421,-0.5439,-0.5453,-0.5453,-0.5432,-0.5428,-0.5463,-0.5467,-0.5472,-0.5547,-0.5479,-0.5482,-0.5484,-0.5642,-0.5645,-0.5648,0,0,0,0,0,0,-0.537,-0.5378,-0.5447,-0.5413,-0.5421,-0.5421,-0.5442,-0.5441,-0.5453,-0.5456,-0.5456,-0.5445,-0.5462,-0.5468,-0.5515,-0.5548,-0.5483,-0.5486,-0.5639,-0.5643,-0.5646,-0.5698,0,0,0,0,0,0,-0.5367,-0.5378,-0.5402,-0.5414,-0.5423,-0.5489,-0.5444,-0.5443,-0.5459,-0.5455,-0.5468,-0.5468,-0.546,-0.551,-0.5518,-0.5551,-0.5489,-0.5636,-0.5641,-0.5645,-0.5693,-0.5703,-0.5711,0,0,0,0,0,-0.5364,-0.5415,-0.5403,-0.5412,-0.5453,-0.5491,-0.5496,-0.5487,-0.5462,-0.5486,-0.5488,-0.5467,-0.5543,-0.5515,-0.5524,-0.5558,-0.5634,-0.564,-0.5645,-0.5689,-0.5701,-0.571,0,0,0,0,0,0,-0.5406,-0.5416,-0.5404,-0.546,-0.5475,-0.5485,-0.5515,-0.55,-0.5522,-0.5516,-0.5504,-0.5507,-0.5557,-0.5563,-0.5531,-0.5621,-0.5584,-0.5592,-0.5615,-0.5626,-0.5635,-0.5632,-0.5492,0,0,0,0,0,-0.5422,-0.5452,-0.5459,-0.5508,-0.5517,-0.5515,-0.5531,-0.5523,-0.5537,-0.5543,-0.5549,-0.5564,-0.5591,-0.5609,-0.5634,-0.5694,-0.5696,-0.5722,-0.5731,-0.5738,-0.5744,-0.5777,-0.5788,-0.5665,-0.5665,-0.5665,0,0,-0.5455,-0.5464,-0.5484,-0.5517,-0.5528,-0.5559,-0.552,-0.5555,-0.5578,-0.5548,-0.5593,-0.5598,-0.5614,-0.5668,-0.5692,-0.5674,-0.5779,-0.5745,-0.5751,-0.5753,-0.5783,-0.5795,-0.5805,-0.5669,-0.5668,-0.5667,0,0,-0.5531,-0.5541,-0.5583,-0.5595,-0.5612,-0.5611,-0.5621,-0.5634,-0.5636,-0.5681,-0.566,-0.5687,-0.5734,-0.5746,-0.5758,-0.5841,-0.5822,-0.5849,-0.5895,-0.5927,-0.5936,-0.5945,-0.5974,-0.5985,-0.5856,-0.5856,-0.5856,0,-0.5569,-0.5616,-0.5607,-0.5643,-0.5659,-0.5634,-0.5677,-0.5689,-0.5713,-0.5724,-0.5704,-0.5763,-0.5772,-0.5828,-0.5848,-0.5859,-0.587,-0.5847,-0.5936,-0.5944,-0.5952,-0.598,-0.5991,-0.5859,-0.5858,-0.5858,-0.5858,0,-0.5663,-0.5696,-0.5728,-0.5753,-0.5772,-0.5811,-0.5807,-0.5828,-0.5818,-0.5819,-0.5865,-0.5876,-0.5902,-0.5915,-0.5906,-0.5971,-0.5959,-0.5938,-0.5901,-0.5967,-0.5993,-0.6004,-0.5863,-0.5862,-0.5861,-0.586,0,0,-0.5765,-0.5785,-0.5797,-0.5808,-0.5826,-0.5851,-0.589,-0.5917,-0.5935,-0.5953,-0.5984,-0.6025,-0.6006,-0.602,-0.6012,-0.604,-0.6105,-0.6015,-0.6015,-0.6031,-0.6177,-0.6193,-0.6205,-0.6093,-0.6095,-0.6097,-0.6175,0,-0.5841,-0.5908,-0.5901,-0.5965,-0.5996,-0.5974,-0.6007,-0.6022,-0.6024,-0.605,-0.6052,-0.6081,-0.6053,-0.6061,-0.6088,-0.6091,-0.6134,-0.6085,-0.6122,-0.6124,-0.6118,-0.6218,-0.6235,-0.6309,-0.6185,-0.6187,-0.6188,0,-0.5939,-0.5961,-0.6028,-0.6042,-0.6054,-0.6085,-0.6109,-0.6135,-0.6151,-0.615,-0.6167,-0.6154,-0.6193,-0.6157,-0.6209,-0.6177,-0.6192,-0.6196,-0.6198,-0.62,-0.6159,-0.6223,-0.6332,-0.6343,-0.6204,-0.6203,-0.6202,0,-0.6006,-0.6053,-0.6099,-0.611,-0.6127,-0.6149,-0.6157,-0.6171,-0.6188,-0.621,-0.6221,-0.6247,-0.626,-0.6281,-0.6275,-0.6249,-0.633,-0.6293,-0.633,-0.633,-0.6347,-0.6346,-0.6459,-0.6358,-0.6358,-0.6357,-0.6357,0,-0.6091,-0.6133,-0.613,-0.6158,-0.6205,-0.6196,-0.6242,-0.6248,-0.6261,-0.629,-0.6273,-0.63,-0.6292,-0.6319,-0.6315,-0.636,-0.6366,-0.6367,-0.6365,-0.6368,-0.6368,-0.6377,-0.6371,-0.636,-0.636,-0.6359,-0.6359,0,-0.6174,-0.6173,-0.6222,-0.6235,-0.624,-0.6273,-0.6284,-0.6311,-0.6312,-0.6349,-0.6357,-0.6359,-0.639,-0.6388,-0.6422,-0.642,-0.6475,-0.6467,-0.647,-0.6468,-0.6505,-0.6502,-0.6628,-0.6644,-0.6533,-0.6534,-0.6535,0,-0.6228,-0.6259,-0.6276,-0.6295,-0.6305,-0.6335,-0.6353,-0.6346,-0.6365,-0.6387,-0.6411,-0.6441,-0.6464,-0.6515,-0.6519,-0.6546,-0.6539,-0.6581,-0.6542,-0.6544,-0.6539,-0.6537,-0.654,-0.6588,-0.659,-0.6591,-0.6591,0,-0.6323,-0.6322,-0.6348,-0.6375,-0.6397,-0.6418,-0.6436,-0.6452,-0.6448,-0.647,-0.6502,-0.6521,-0.6557,-0.6587,-0.6612,-0.662,-0.6605,-0.6604,-0.6614,-0.6617,-0.6616,-0.6617,-0.649,-0.6601,-0.66,-0.6599,-0.6599,-0.6598,-0.6393,-0.642,-0.6437,-0.6467,-0.6481,-0.6499,-0.6525,-0.653,-0.6557,-0.6586,-0.6581,-0.6617,-0.6633,-0.6666,-0.6677,-0.6705,-0.669,-0.6704,-0.6708,-0.6711,-0.6716,-0.6613,-0.671,-0.671,-0.6709,-0.6709,-0.6709,0,-0.6487,-0.6497,-0.6525,-0.6552,-0.6576,-0.6561,-0.6582,-0.6602,-0.6635,-0.6651,-0.6675,-0.6712,-0.6742,-0.6749,-0.6777,-0.6798,-0.6792,-0.6805,-0.6803,-0.6805,-0.6728,-0.6716,-0.681,-0.681,-0.681,-0.681,-0.681,-0.681,-0.6539,-0.6585,-0.6586,-0.6638,-0.6648,-0.6683,-0.6696,-0.6713,-0.6726,-0.6769,-0.6794,-0.6798,-0.6811,-0.6841,-0.6867,-0.6868,-0.6879,-0.6895,-0.6894,-0.6821,-0.6811,-0.6801,-0.679,-0.6898,-0.6898,-0.6969,-0.697,-0.697]},{"header":{"parameterUnit":"m.s-1","parameterCategory":1,"la1":30.2991,"la2":30.254,"lo1":-89.0895,"lo2":-89.0444,"dy":0.0017,"dx":0.0017,"nx":28,"ny":28,"refTime":"2023-11-05T09:00:00:Z","depth":0,"parameterNumber":3,"parameterNumberName":"V-component_of_WINDS"},"data":[0,0,0,0,0,0,0,0,0,0,0,0,0,0,0,0,0,0,0,0,0,0,0,0,0,0,0,0,0,0,0,0,0,0,0,0,0,0,0,0,0,0,0,0,0,0,0,0,0,0,0,0,0,0,0,0,0,0,2.0423,2.0423,0,2.0388,2.0388,2.0387,2.0411,2.0412,2.0413,2.0414,2.0372,2.037,2.0368,0,0,0,0,0,0,0,0,0,0,0,0,0,2.0505,2.0504,2.0424,2.0423,2.0423,2.0388,2.0388,2.0387,2.0411,2.0412,2.0413,2.0415,2.0373,2.037,2.0367,0,0,0,0,0,0,0,0,0,0,0,0,0,2.047,2.0503,2.0424,2.043,2.0431,2.0388,2.0388,2.0387,2.0411,2.0412,2.0414,2.0415,2.0373,2.037,2.0367,2.0314,0,0,2.0357,2.0356,0,0,0,0,0,0,0,0,2.0472,2.0467,2.043,2.043,2.043,2.0406,2.0401,2.0363,2.041,2.0418,2.0414,2.0416,2.0381,2.0378,2.0367,2.0312,2.0311,2.0357,2.0355,2.0354,2.0353,0,0,0,0,0,0,0,2.0474,2.0468,2.0409,2.0429,2.0429,2.0433,2.043,2.0394,2.0391,2.0417,2.0419,2.0415,2.0382,2.037,2.0366,2.031,2.0357,2.0354,2.0352,2.0351,2.0209,2.0207,0,0,0,0,0,0,2.0477,2.047,2.0411,2.0408,2.0456,2.0431,2.0427,2.0412,2.0391,2.039,2.0414,2.0416,2.0375,2.037,2.0365,2.0301,2.0354,2.0351,2.0349,2.0211,2.0208,2.0206,0,0,0,0,0,0,2.0479,2.0471,2.0412,2.044,2.0433,2.0427,2.041,2.041,2.0399,2.0388,2.0387,2.0403,2.0376,2.0369,2.0327,2.0299,2.0349,2.0346,2.0213,2.021,2.0207,2.0172,0,0,0,0,0,0,2.0481,2.0472,2.0453,2.0439,2.0431,2.0376,2.0409,2.0408,2.0394,2.0397,2.0378,2.0376,2.0377,2.0332,2.0324,2.0296,2.0344,2.0215,2.0211,2.0208,2.0176,2.0169,2.0162,0,0,0,0,0,2.0484,2.0443,2.0452,2.0445,2.0408,2.0374,2.0369,2.0373,2.0392,2.0372,2.0365,2.0377,2.0305,2.0327,2.0318,2.0289,2.0217,2.0212,2.0208,2.0179,2.017,2.0163,0,0,0,0,0,0,2.0451,2.0442,2.0451,2.0405,2.0391,2.0379,2.0353,2.0364,2.0342,2.0345,2.0348,2.0344,2.0299,2.029,2.0316,2.0237,2.0263,2.0257,2.0244,2.0235,2.0229,2.0231,2.0341,0,0,0,0,0,2.044,2.0416,2.0407,2.0368,2.036,2.0358,2.0344,2.0348,2.0332,2.0325,2.0315,2.0298,2.0271,2.0253,2.0228,2.0176,2.017,2.0151,2.0145,2.0139,2.0133,2.0103,2.0094,2.0193,2.0193,2.0193,0,0,2.0414,2.0405,2.0389,2.0361,2.035,2.0323,2.0353,2.0323,2.0302,2.032,2.0279,2.0272,2.0252,2.0204,2.0182,2.0195,2.0105,2.0134,2.013,2.0126,2.0098,2.0088,2.008,2.019,2.019,2.0191,0,0,2.0352,2.0345,2.031,2.0299,2.0284,2.0283,2.0274,2.0261,2.0257,2.0217,2.023,2.0204,2.0158,2.0144,2.013,2.0064,2.0074,2.0056,2.002,1.9991,1.9983,1.9976,1.9951,1.9942,2.0051,2.005,2.005,0,2.0321,2.0283,2.0291,2.026,2.0246,2.0265,2.0229,2.0217,2.0193,2.0182,2.0198,2.0141,2.0129,2.0077,2.0061,2.005,2.0039,2.0057,1.9984,1.9977,1.9971,1.9946,1.9937,2.0048,2.0049,2.0049,2.0049,0,2.0245,2.0218,2.0192,2.017,2.0154,2.012,2.0122,2.0104,2.011,2.0107,2.0065,2.0052,2.0024,2.0012,2.0017,1.9961,1.9969,1.9985,2.0011,1.9959,1.9936,1.9927,2.0045,2.0046,2.0047,2.0047,0,0,2.0159,2.0144,2.0134,2.0124,2.0109,2.0087,2.0054,2.0029,2.0013,1.9996,1.9967,1.9928,1.9943,1.9927,1.9931,1.9906,1.9852,1.9924,1.9923,1.9909,1.9787,1.9773,1.9763,1.9859,1.9858,1.9856,1.9788,0,2.0096,2.004,2.0047,1.9993,1.9967,1.9985,1.9956,1.9942,1.9938,1.9914,1.991,1.9882,1.9904,1.9895,1.9871,1.9864,1.9827,1.9869,1.9829,1.9828,1.9831,1.9751,1.9737,1.9673,1.9779,1.9778,1.9776,0,2.0013,1.9995,1.994,1.9928,1.9917,1.9891,1.9869,1.9847,1.9831,1.983,1.9813,1.9821,1.9786,1.9816,1.9766,1.9794,1.9779,1.9773,1.9771,1.9765,1.9797,1.9741,1.9653,1.9642,1.9763,1.9764,1.9765,0,1.9954,1.9916,1.9878,1.9869,1.9855,1.9836,1.9829,1.9815,1.98,1.9779,1.9769,1.9744,1.973,1.971,1.971,1.9732,1.9659,1.9689,1.9655,1.9654,1.9636,1.9637,1.9542,1.963,1.963,1.9631,1.9631,0,1.9881,1.9845,1.9851,1.9827,1.9787,1.9795,1.9755,1.975,1.9738,1.9711,1.9725,1.9699,1.9703,1.9676,1.9676,1.9634,1.9628,1.9624,1.9624,1.9622,1.9622,1.961,1.9613,1.9628,1.9629,1.9629,1.963,0,1.9807,1.981,1.9769,1.976,1.9756,1.9727,1.9718,1.9695,1.9693,1.966,1.9652,1.9649,1.9619,1.9618,1.9583,1.9583,1.9531,1.9537,1.9536,1.9537,1.9502,1.9504,1.9394,1.9378,1.9479,1.9478,1.9478,0,1.9758,1.9732,1.9721,1.9705,1.9697,1.9672,1.9657,1.9663,1.9646,1.9627,1.9605,1.9577,1.9555,1.9506,1.9498,1.9471,1.9475,1.9439,1.9471,1.9469,1.9472,1.9473,1.9469,1.9431,1.943,1.9429,1.9428,0,1.9672,1.9675,1.9653,1.9632,1.9614,1.9597,1.9582,1.9568,1.9573,1.9553,1.9523,1.9506,1.9472,1.9443,1.9417,1.9407,1.9417,1.9419,1.9409,1.9405,1.9405,1.9402,1.9516,1.942,1.9421,1.9422,1.9422,1.9423,1.9607,1.9584,1.9573,1.9548,1.9538,1.9523,1.9501,1.9497,1.9474,1.9447,1.9452,1.9419,1.9403,1.937,1.9358,1.9331,1.9343,1.933,1.9326,1.9322,1.9317,1.9412,1.9327,1.9327,1.9327,1.9327,1.9327,0,1.9519,1.9513,1.9491,1.947,1.945,1.9465,1.9449,1.9431,1.9402,1.9388,1.9366,1.9332,1.9304,1.9296,1.9268,1.9248,1.9251,1.924,1.924,1.9237,1.9309,1.9319,1.9237,1.9237,1.9237,1.9237,1.9237,1.9237,1.9471,1.9432,1.9434,1.939,1.9384,1.9353,1.9342,1.9328,1.9317,1.9278,1.9256,1.9252,1.9239,1.9211,1.9186,1.9184,1.9172,1.9158,1.9157,1.9223,1.9232,1.9241,1.925,1.9156,1.9156,1.9088,1.9087,1.9087]}]]